Regional Weather Roundup
Issued by NWS Charleston, WV

Home | Current Version | Previous Version | Text Only | Print | Product List | Glossary Off
Versions: 1 2 3 4 5 6 7 8 9 10 11 12 13 14 15 16 17 18 19 20 21 22 23 24 25 26 27 28 29 30 31 32 33 34 35 36 37 38 39 40 41 42 43 44 45 46 47 48 49 50

000
ASUS41 KRLX 270710
RWRRLX
West Virginia Regional Weather Roundup
National Weather Service Charleston WV
300 AM EDT MON MAR 27 2017

Note: "fair" indicates few or no clouds below 12,000 feet with no
significant weather and/or obstructions to visibility.

WVZ003-270800-
Northern Panhandle of West Virginia

CITY           SKY/WX    TMP DP  RH WIND       PRES   REMARKS
WHEELING       LGT RAIN  55  53  93 SW6       29.94F
$$

WVZ009-270800-
Northwest West Virginia

CITY           SKY/WX    TMP DP  RH WIND       PRES   REMARKS
PARKERSBURG    LGT RAIN  57  56  96 SW3       29.99F
$$

WVZ006-270800-
Western West Virginia

CITY           SKY/WX    TMP DP  RH WIND       PRES   REMARKS
HUNTINGTON     LGT RAIN  59  55  87 SW3       29.98S
$$

WVZ015-270800-
West Central West Virginia

CITY           SKY/WX    TMP DP  RH WIND       PRES   REMARKS
CHARLESTON     CLOUDY    58  54  86 S3        29.98F
$$

WVZ022-031-270800-
North Central West Virginia

CITY           SKY/WX    TMP DP  RH WIND       PRES   REMARKS
CLARKSBURG     CLOUDY    57  54  89 S7        29.99S
MORGANTOWN     CLOUDY    58  53  84 S5        29.99S
$$

WVZ025-035-042-045-270800-
Southern West Virginia

CITY           SKY/WX    TMP DP  RH WIND       PRES   REMARKS
BECKLEY        CLOUDY    55  52  89 S6        30.05F
LOGAN            N/A     57  55  94 CALM      30.01F
BLUEFIELD      NOT AVBL
LEWISBURG      LGT RAIN  54  52  94 CALM      30.06F
$$

WVZ047-270800-
Northern Mountains of West Virginia

CITY           SKY/WX    TMP DP  RH WIND       PRES   REMARKS
ELKINS         LGT RAIN  56  50  80 SE7       30.04S
$$

WVZ052-270800-
Eastern Panhandle of West Virginia

CITY           SKY/WX    TMP DP  RH WIND       PRES   REMARKS
MARTINSBURG    CLOUDY    45  44  97 VRB3      30.09F FOG
PETERSBURG     CLOUDY    48  47  94 N5        30.08F
$$



USA.gov is the U.S. government's official web portal to all federal, state and local government web resources and services.